Regional Weather Roundup
Issued by NWS

Home | Current Version | Previous Version | Text Only | Print | Product List | Glossary Off
Versions: 1 2 3 4 5 6 7 8 9 10 11 12 13 14 15 16 17 18 19 20 21 22 23 24 25 26 27 28 29 30 31 32 33 34 35 36 37 38 39 40 41 42 43 44 45 46 47 48 49 50

000
ASUS43 KOAX 260910
RWRNE

WEATHER ROUNDUP FOR NEBRASKA
NATIONAL WEATHER SERVICE OMAHA NE
400 AM CDT WED JUL 26 2017

NOTES: SATELLITE DATA IS BEING USED TO AUGMENT CLOUD COVER ABOVE
       12000 FEET.
       "FAIR" INDICATES FEW OR NO CLOUDS BELOW 12,000 FEET WITH NO
       SIGNIFICANT WEATHER AND/OR OBSTRUCTIONS TO VISIBILITY.


NEZ001>004-019>022-054>056-261000-
NEBRASKA PANHANDLE

CITY           SKY/WX    TMP DP  RH WIND       PRES   REMARKS
SCOTTSBLUFF    CLOUDY    73  63  70 NW7       30.10S
ALLIANCE       MOCLDY    69  66  90 N13       30.07S
CHADRON        LGT RAIN  69  57  65 N8        30.08S
GORDON         CLOUDY    70  67  91 N8        30.06R
KIMBALL        CLOUDY    70  63  78 N16       30.15R
SIDNEY         PTCLDY    68  63  84 N15       30.08S
$$

NEZ057>060-069>072-079>082-261000-
SOUTHWEST NEBRASKA

CITY           SKY/WX    TMP DP  RH WIND       PRES   REMARKS
NORTH PLATTE   LGT RAIN  70  68  93 NE22      29.95F
IMPERIAL       PTCLDY    71  64  78 NE6       29.94S
LEXINGTON      CLOUDY    73  69  89 E13       29.95R
MCCOOK         CLOUDY    76  69  79 E12       29.88F
OGALLALA       PTCLDY    72  64  78 E10G18    30.00R
$$

NEZ005>010-023>029-035>040-094-261000-
NORTH CENTRAL NEBRASKA

CITY           SKY/WX    TMP DP  RH WIND       PRES   REMARKS
VALENTINE      CLOUDY    71  66  84 NE7       29.98R
AINSWORTH      LGT RAIN  68  67  99 NW6       30.01R
BROKEN BOW     CLOUDY    69  66  90 E10       29.98F
O`NEILL        RAIN      69  69 100 SE12      29.97F
ORD            CLOUDY    68  65  90 E6        29.97F
THEDFORD       CLOUDY    68  67  97 E5        30.02R
$$

NEZ041-046>049-061>064-073>077-083>087-261000-
SOUTH CENTRAL NEBRASKA

CITY           SKY/WX    TMP DP  RH WIND       PRES   REMARKS
GRAND ISLAND   LGT RAIN  69  69 100 N10G21    30.01R
AURORA         RAIN      74  73  96 W5        29.99R
HASTINGS       LGT RAIN  74  70  87 CALM      29.99F FOG
HEBRON         CLOUDY    82  69  66 S12G18    29.91F
HOLDREGE       LGT RAIN  72  69  90 E15       29.93S
KEARNEY        TSTM      71  69  93 N13       30.01R
YORK           CLOUDY    81  70  69 W20G26    29.97R
$$

NEZ011>018-030>034-042>045-261000-
NORTHEAST NEBRASKA

CITY           SKY/WX    TMP DP  RH WIND       PRES   REMARKS
NORFOLK        TSTM      70  69  97 N16       30.00F FOG
ALBION         RAIN      71  70  96 N10       30.01F
BLAIR          CLOUDY    82  72  71 S15G21    29.93S
COLUMBUS       TSTM      73  72  94 N8G20     29.97R FOG
FREMONT        CLOUDY    81  69  68 SE9G17    29.91F
TEKAMAH        CLOUDY    79  73  82 N10G17    29.94R
WAYNE          RAIN      71  71  99 N9        30.00S
$$

NEZ050>053-065>068-078-088>093-261000-
SOUTHEAST NEBRASKA

CITY           SKY/WX    TMP DP  RH WIND       PRES   REMARKS
LINCOLN        CLOUDY    82  70  66 S15G22    29.90F
OMAHA EPPLEY   CLOUDY    83  73  72 S13       29.93S
BEATRICE       CLOUDY    82  71  68 S13G21    29.92F
FALLS CITY     CLOUDY    78  71  79 S10       29.95S
NEBRASKA CITY  CLOUDY    78  74  87 S10       29.95S
PLATTSMOUTH    CLOUDY    79  72  78 SE13      29.94S
$$

NEZ044-045-051>053-067-261000-
OMAHA AREA

CITY           SKY/WX    TMP DP  RH WIND       PRES   REMARKS
OMAHA EPPLEY   CLOUDY    83  73  72 S13       29.93S
BLAIR          CLOUDY    82  72  71 S15G21    29.93S
FREMONT        CLOUDY    81  69  68 SE9G17    29.91F
MILLARD        CLOUDY    82  74  76 SE8       29.93S
OFFUTT AFB     CLEAR     80  73  80 SE13      29.93S
PLATTSMOUTH    CLOUDY    79  72  78 SE13      29.94S
WAHOO          PTSUNNY   79  70  72 SE10      29.91F
$$



USA.gov is the U.S. government's official web portal to all federal, state and local government web resources and services.